map of SKB home
SKB - Airport
Location
City:  Basseterre, St. Kitts Island, Saint Kitts and Nevis
Name:Robert L. Bradshaw International Airport
ICAO:TKPK
IATA:SKB

Details
Type:Airport (Aerodrome, Airfield)
Use:International (customs port of entry)
Latitude:1718'41"N (17.311389)
Longitude:6243'07"W (-62.718610)
Elevation:170 ft (52 m)
Variation:14.48W (WMM2015 magnetic declination)
-0.03 annual change
Runways:1
Longest:7598 × 148 ft (2316 × 45 m)

Time
Time Zone:UTC-4
Local Time:

Weather
METAR:TKPK 220100Z 08008KT 9999 SCT020 24/21 Q1019
TAF:TKPK 212325Z 2200/2224 08008KT P6SM VCSH SCT016 BKN045
FM221500 06012KT P6SM SCT025
FM221800 06013KT P6SM SCT250
AMD NOT SKED 2202/2211

Related Locations
Nearby:
Farthest:PHE: 12204 mi / 19640 km
Port Hedland, WA, AU

Find:

   beyond  
but within

Other Information
Maps:
NOTAMs:
Links:
Sources:

  
  • flag of Saint Kitts and Nevis
  

Airport Diagram

Airport diagram for SKB

Airport diagram PDF

Sectional Chart

Flight Planning
at skyvector.com

Satellite Image

Google Maps Satellite view

 

Copyright © 2004-2019 Karl L. Swartz. All rights reserved.
The Great Circle Mapper name and logo are trademarks of the Great Circle Mapper.
All other trademarks mentioned herein belong to their respective owners.
Please see credits for attibutions and further copyright information.

  Follow gcmap on Facebook Follow gcmap on Twitter Follow gcmap on Google+ GCmap on LinkedIn

hCard Microformat

Geo Microformat